{"data":{"norad_id":45155,"epoch":"2026-09-20T01:48:11.848032Z","epoch_age_seconds":51016,"freshness":"FRESH","line1":"1 45155U 20008AA  26263.07513713 -.00000522  00000+0 -15096-2 0  9999","line2":"2 45155  87.8968   2.2057 0001785 102.0705 258.0623 13.11417263323520","mean_motion":13.11417263,"eccentricity":0.0001785,"inclination_deg":87.8968,"raan_deg":2.2057,"arg_perigee_deg":102.0705,"mean_anomaly_deg":258.0623,"bstar":-0.0015096,"rev_number":32352,"period_min":109.80486841433,"perigee_km":1216.325616858,"apogee_km":1219.037324052,"semimajor_km":7595.818470455,"source":"CELESTRAK","updated_at":"2026-09-20T09:00:44.549680Z"}}